AFL3500 URSS-ULLI

Flight info

Callsign AFL3500
Flight time N/A
Altitude 35000
Route IRGID1D IRGID A944 GUBOR G487 ERSAR DCT BEMES DCT VULFI DCT TUVGI DCT EVZUN DCT ZIZAR DCT VAZLU DCT UZZID DCT NOKLI N72 WGD G481 OBABI T619 UMRAL P163 GOLRI L736 OLOPI N50 NUDKO T561 ODATI T875 GENPA GENPA1V
Aircraft A321/M-SDE3FGHIRWY/LB1

Departure

Time N/A
Airport Sochi International Airport (URSS)

Arrival

Time 2026-05-04 12:44
Airport Pulkovo Airport (ULLI)
Time Latitude Longitude Altitude Speed Heading
2026-05-04 12:24 58.70905 32.46084 35792 ft 418 kts 315°
2026-05-04 12:24 58.73133 32.42489 35783 ft 418 kts 315°
2026-05-04 12:25 58.77556 32.35339 35770 ft 418 kts 316°
2026-05-04 12:25 58.79786 32.31738 35656 ft 419 kts 315°
2026-05-04 12:25 58.82022 32.28120 35029 ft 421 kts 315°
2026-05-04 12:26 58.84268 32.24485 34342 ft 421 kts 315°
2026-05-04 12:26 58.86520 32.20820 33584 ft 424 kts 315°
2026-05-04 12:26 58.88786 32.17124 32728 ft 427 kts 315°
2026-05-04 12:26 58.91059 32.13411 31924 ft 428 kts 315°
2026-05-04 12:27 58.93341 32.09679 31136 ft 430 kts 315°
2026-05-04 12:27 58.95633 32.05926 30317 ft 433 kts 314°
2026-05-04 12:27 58.97951 32.02118 29321 ft 439 kts 314°
2026-05-04 12:27 59.00287 31.98271 28368 ft 441 kts 314°
2026-05-04 12:28 59.02598 31.94451 27494 ft 442 kts 314°
2026-05-04 12:28 59.04978 31.90521 26605 ft 443 kts 315°
2026-05-04 12:28 59.07300 31.86690 25775 ft 444 kts 315°
2026-05-04 12:28 59.09657 31.82795 24956 ft 444 kts 315°
2026-05-04 12:29 59.11987 31.78840 24166 ft 443 kts 313°
2026-05-04 12:29 59.14239 31.74757 23396 ft 442 kts 312°
2026-05-04 12:29 59.16430 31.70582 22501 ft 440 kts 311°
2026-05-04 12:29 59.18592 31.66359 21636 ft 438 kts 310°
2026-05-04 12:30 59.20736 31.62146 20773 ft 436 kts 310°
2026-05-04 12:30 59.22846 31.58021 19955 ft 434 kts 310°
2026-05-04 12:30 59.24971 31.53909 19134 ft 432 kts 310°
2026-05-04 12:30 59.27120 31.49790 18439 ft 427 kts 311°
2026-05-04 12:31 59.29237 31.45756 17856 ft 421 kts 311°
2026-05-04 12:31 59.31278 31.41886 17585 ft 391 kts 310°
2026-05-04 12:31 59.33152 31.38337 17242 ft 360 kts 310°
2026-05-04 12:31 59.34870 31.35064 17050 ft 329 kts 309°
2026-05-04 12:32 59.36445 31.32044 16749 ft 306 kts 309°
2026-05-04 12:32 59.39391 31.26324 15331 ft 293 kts 308°
2026-05-04 12:32 59.40826 31.23522 14583 ft 290 kts 308°
2026-05-04 12:33 59.42249 31.20741 13832 ft 287 kts 308°
2026-05-04 12:33 59.43659 31.17983 13078 ft 285 kts 308°
2026-05-04 12:33 59.45058 31.15249 12302 ft 282 kts 308°
2026-05-04 12:33 59.46421 31.12585 11568 ft 279 kts 308°
2026-05-04 12:34 59.47787 31.09906 10821 ft 277 kts 308°
2026-05-04 12:34 59.49149 31.07239 10151 ft 275 kts 308°
2026-05-04 12:34 59.50502 31.04595 9474 ft 273 kts 308°
2026-05-04 12:34 59.51838 31.01970 8720 ft 269 kts 307°
2026-05-04 12:35 59.53098 30.99272 7990 ft 265 kts 304°
2026-05-04 12:35 59.54296 30.96539 7251 ft 262 kts 303°
2026-05-04 12:35 59.55469 30.93807 6517 ft 259 kts 303°
2026-05-04 12:35 59.56634 30.91093 5772 ft 257 kts 303°
2026-05-04 12:36 59.57791 30.88407 5018 ft 256 kts 304°
2026-05-04 12:36 59.58933 30.85769 4252 ft 256 kts 304°
2026-05-04 12:36 59.60073 30.83136 3996 ft 255 kts 304°
2026-05-04 12:36 59.61231 30.80451 3872 ft 257 kts 305°
2026-05-04 12:37 59.62394 30.77754 3762 ft 259 kts 305°
2026-05-04 12:37 59.63564 30.75037 3636 ft 259 kts 304°
2026-05-04 12:37 59.64734 30.72328 3506 ft 259 kts 305°
2026-05-04 12:37 59.65908 30.69618 3388 ft 260 kts 305°
2026-05-04 12:38 59.67212 30.67107 3231 ft 266 kts 319°
2026-05-04 12:38 59.68743 30.64948 2797 ft 270 kts 320°
2026-05-04 12:38 59.70241 30.62877 2738 ft 254 kts 320°
2026-05-04 12:38 59.71648 30.60943 2704 ft 237 kts 320°
2026-05-04 12:39 59.72957 30.59139 2602 ft 223 kts 320°
2026-05-04 12:39 59.74130 30.57362 2511 ft 200 kts 309°
2026-05-04 12:39 59.74892 30.55311 2508 ft 174 kts 291°
2026-05-04 12:39 59.75289 30.53163 2507 ft 157 kts 281°
2026-05-04 12:40 59.75593 30.51165 2388 ft 150 kts 280°
2026-05-04 12:40 59.75891 30.49193 2218 ft 148 kts 280°
2026-05-04 12:40 59.76186 30.47241 2046 ft 147 kts 281°
2026-05-04 12:40 59.76476 30.45314 1847 ft 148 kts 279°
2026-05-04 12:41 59.76774 30.43331 1653 ft 150 kts 281°
2026-05-04 12:41 59.77075 30.41339 1455 ft 151 kts 281°
2026-05-04 12:41 59.77372 30.39366 1264 ft 147 kts 281°
2026-05-04 12:41 59.77661 30.37447 1062 ft 145 kts 281°
2026-05-04 12:42 59.77954 30.35519 882 ft 149 kts 283°
2026-05-04 12:42 59.78247 30.33552 662 ft 147 kts 284°
2026-05-04 12:42 59.78550 30.31588 475 ft 149 kts 284°
2026-05-04 12:42 59.78836 30.29588 278 ft 148 kts 283°
2026-05-04 12:43 59.79129 30.27638 89 ft 143 kts 285°
2026-05-04 12:43 59.79360 30.26056 84 ft 91 kts 287°
2026-05-04 12:43 59.79505 30.25087 86 ft 68 kts 286°
2026-05-04 12:43 59.79629 30.24224 85 ft 62 kts 287°
2026-05-04 12:44 59.79730 30.23563 87 ft 33 kts 289°
2026-05-04 12:44 59.79819 30.23237 85 ft 16 kts 311°
2026-05-04 12:44 59.79892 30.23075 85 ft 15 kts 313°
2026-05-04 12:44 59.79973 30.23081 72 ft 13 kts 65°
2026-05-04 12:45 59.79958 30.23249 81 ft 13 kts 107°
2026-05-04 12:45 59.79928 30.23447 85 ft 18 kts 107°
2026-05-04 12:45 59.79885 30.23740 85 ft 26 kts 106°
2026-05-04 12:45 59.79827 30.24130 87 ft 33 kts 107°
2026-05-04 12:46 59.79753 30.24610 87 ft 40 kts 108°
2026-05-04 12:46 59.79679 30.25124 85 ft 36 kts 105°
2026-05-04 12:46 59.79626 30.25492 88 ft 29 kts 106°
2026-05-04 12:46 59.79562 30.25918 87 ft 27 kts 107°
2026-05-04 12:47 59.79522 30.26187 87 ft 21 kts 106°
2026-05-04 12:47 59.79520 30.26351 86 ft 11 kts 45°
2026-05-04 12:47 59.79597 30.26408 83 ft 12 kts 17°
2026-05-04 12:47 59.79680 30.26458 87 ft 13 kts 17°
2026-05-04 12:48 59.79763 30.26507 82 ft 13 kts 16°
2026-05-04 12:48 59.79835 30.26550 82 ft 6 kts 16°
2026-05-04 12:48 59.79855 30.26614 87 ft 6 kts 83°
2026-05-04 12:48 59.79852 30.26693 83 ft 3 kts 96°
2026-05-04 12:49 59.79850 30.26725 82 ft 0 kts 97°